P/2016 S1 ( PanSTARRS )

Japanese version
Home page
Updated on July 8, 2017

---------------------------------------------------------------------

* Profile

Discovery Date September 21, 2016
Magnitude 19.4 mag
Discoverer Pan-STARRS 1 telescope (Haleakala)

* Pictures

* Orbital Elements

Epoch 2017 Mar. 28.0 TT = JDT 2457840.5
T 2017 Mar. 16.82490 TT                                 MPCW
q   2.4118854            (2000.0)            P               Q
n   0.04135235     Peri.  273.61552     +0.01763263     -0.67753629
a   8.2820137      Node   227.53996     +0.30242887     -0.69733016
e   0.7087803      Incl.   94.69014     -0.95300885     -0.23382733
P  23.83
From 125 observations 2016 Sept. 21-2017 June 12, mean residual 0".4.

* Finding Charts

* Magnitudes Graph

        m1 = 11.5 + 5 log d + 10.0 log r

---------------------------------------------------------------------

The orbital elements are published on M.P.E.C. 2017-N58.
The charts are made with StellaNavigator Ver.10 (AstroArts).
The magnitudes graphs are made with Comet for Windows.

---------------------------------------------------------------------

Copyright(C) Seiichi Yoshida (comet@aerith.net). All rights reserved.